This is the latest recevied weather packets stored in our database for station/object EA4URC-13. If no packets are shown the sender has not sent any weather packets the latest 10 day(s).
| Time | Temp. | Humidity | Pressure | Rain* | Wind** | Luminosity | Snow |
|---|---|---|---|---|---|---|---|
| 1777848217 | 13.89° C | 63% | 1005.5 hPa | - | - | - | - |
| 1777847317 | 13.33° C | 65% | 1006 hPa | - | - | - | - |
| 1777846417 | 13.89° C | 53% | 1005.6 hPa | - | - | - | - |
| 1777845517 | 13.89° C | 51% | 1005.5 hPa | - | - | - | - |
| 1777844617 | 15° C | 48% | 1005 hPa | - | - | - | - |
| 1777843717 | 15° C | 48% | 1005 hPa | - | - | - | - |
| 1777842817 | 15.56° C | 49% | 1005 hPa | - | - | - | - |
| 1777841961 | 15° C | 50% | 1005 hPa | - | - | - | - |
| 1777841917 | 15° C | 50% | 1005 hPa | - | - | - | - |
| 1777841017 | 16.11° C | 54% | 1004.2 hPa | - | - | - | - |
| 1777840104 | 15° C | 54% | 1004.5 hPa | - | - | - | - |
| 1777839204 | 15° C | 51% | 1004.3 hPa | - | - | - | - |
| 1777838285 | 16.67° C | 46% | 1003.2 hPa | - | - | - | - |
| 1777837386 | 17.22° C | 46% | 1003 hPa | - | - | - | - |
| 1777836485 | 17.22° C | 46% | 1002.8 hPa | - | - | - | - |
| 1777835586 | 17.22° C | 45% | 1002.7 hPa | - | - | - | - |
| 1777834686 | 17.22° C | 45% | 1002.4 hPa | - | - | - | - |
| 1777833786 | 17.78° C | 46% | 1002.1 hPa | - | - | - | - |
| 1777833078 | 18.33° C | 49% | 1001.9 hPa | - | - | - | - |
| 1777832886 | 18.33° C | 49% | 1001.9 hPa | - | - | - | - |
| 1777831980 | 18.33° C | 48% | 1001.9 hPa | - | - | - | - |
| 1777831078 | 18.33° C | 51% | 1001.8 hPa | - | - | - | - |
| 1777829311 | 17.78° C | 54% | 1001.9 hPa | - | - | - | - |
| 1777828411 | 17.22° C | 57% | 1001.9 hPa | - | - | - | - |
| 1777827511 | 16.67° C | 58% | 1002.3 hPa | - | - | - | - |
* Rain since midnight (hover to see other rain measurements)
** Current wind speed in m/s (hover to see current wind gust speed)